Regional Weather Roundup
Issued by NWS

Home | Current Version | Previous Version | Text Only | Print | Product List | Glossary Off
Versions: 1 2 3 4 5 6 7 8 9 10 11 12 13 14 15 16 17 18 19 20 21 22 23 24 25 26 27 28 29 30 31 32 33 34 35 36 37 38 39 40 41 42 43 44 45 46 47 48 49 50

000
ASUS43 KFSD 300402
RWRSD

WEATHER ROUNDUP FOR SOUTH DAKOTA
NATIONAL WEATHER SERVICE SIOUX FALLS SD
1100 PM CDT SUN MAY 29 2016

NOTE: "FAIR" INDICATES FEW OR NO CLOUDS BELOW 12,000 FEET WITH NO
SIGNIFICANT WEATHER AND/OR OBSTRUCTIONS TO VISIBILITY.


SDZ001>005-009-010-012>017-300500-
NORTHWEST AND NORTH CENTRAL SOUTH DAKOTA

CITY           SKY/WX    TMP DP  RH WIND       PRES   REMARKS
BUFFALO          N/A     60  51  72 SE10      29.93R
FAITH            N/A     59  47  64 SE14      29.99R
MOBRIDGE       CLEAR     60  54  80 SE8       29.95R
$$

SDZ012>016-024>037-041>051-057-063-072>074-300500-
SOUTHWEST AND SOUTH CENTRAL SOUTH DAKOTA

CITY           SKY/WX    TMP DP  RH WIND       PRES   REMARKS
RAPID CTY ARPT CLEAR     61  53  75 E9        29.98S
PIERRE         CLEAR     64  54  69 E8        29.97R
CUSTER         CLEAR     54  43  66 CALM      30.09S
ELLSWORTH AFB  CLEAR     64  54  69 E8        29.98S
PHILIP         CLEAR     59  56  89 E8        29.97R
PINE RIDGE     PTCLDY    61  50  67 E6        29.97S
WINNER         FAIR      64  57  78 SE8       29.98S
$$

SDZ004>011-016>023-039-040-300500-
NORTHEAST SOUTH DAKOTA

CITY           SKY/WX    TMP DP  RH WIND       PRES   REMARKS
ABERDEEN       CLOUDY    62  50  64 S6        29.97R
WATERTOWN      CLEAR     59  52  77 SW6       30.01R
BROOKINGS      CLEAR     62  51  67 S8        30.03R
SISSETON         N/A     60  48  64 SW5       29.97R
$$

SDZ017-020-022-023-036>040-048>070-300500-
SOUTHEAST SOUTH DAKOTA

CITY           SKY/WX    TMP DP  RH WIND       PRES   REMARKS
SIOUX FALLS    CLEAR     60  55  83 CALM      30.03S
HURON          CLEAR     67  51  56 S8        30.00R
MITCHELL       CLOUDY    66  56  70 SE7       30.01S
YANKTON        CLOUDY    66  55  68 NE6       30.01S
$$

ABBREVIATIONS USED IN REMARKS
   TC - TEMPERATURE IN CELSIUS
  WCI - WIND CHILL INDEX
   HX - HEAT INDEX
  VSB - VISIBILITY





USA.gov is the U.S. government's official web portal to all federal, state and local government web resources and services.